Рушан

Таджикистан     37°56′45″N   71°33′30″E
темп.,
°C
ветер,
м/с
пор.,
м/с
влажн.,
%
обл.,
%
осадки,
мм/ч
давл.,
гПа
погр.,
м
21 апреля, ср
ср2123:00−7ююв22888 0.8 102218
02:00−6ю2385100 0.0 102181
05:00−5ю3393100 0.4 1020155
08:00−4ю3392100 1.8 1020291
11:00−1юз4591100 3.6 1017540
14:00−2з4497100 2.6 1016444
17:00−3з3493100 5.6 1017342
20:00−5юз2397100 3.3 101962
22 апреля, чт
чт2223:00−6юз2294100 4.7 102015
02:00−7юз229534 0.4 102131
05:00−11ю2292100 0.6 102611
08:00−6зюз2283100 0.0 1023238
11:00−4з3377100 0.3 1022559
14:00−2з336413 0.1 1022973
17:00−2зсз225843 0.5 1022862
20:00−7ссв22816 0.3 102811
23 апреля, пт
пт2323:00−9всв22845 0.3 103119
02:00−10в22835 0.0 103339
05:00−11в33794 0.0 103552
08:00−9вюв33630 0.0 1034249
11:00−5в22490 0.0 1028528
14:00−3всв11360 0.0 1026691
17:00−1всв11373 0.0 1025695
20:00−4в225950 0.0 102714
24 апреля, сб
сб2423:00−6вюв33624 0.0 102940
02:00−7вюв33590 0.0 103062
05:00−8вюв33560 0.0 103292
08:00−6вюв33431 0.0 1031256
11:00−1юв33360 0.0 1027457
14:00+2юв2231100 0.0 1024585
17:00+3ююв2235100 0.0 1023482
20:00−1юв2252100 0.0 102719
25 апреля, вс
вс2523:00−1юв2250100 0.0 102841
02:00−2вюв324755 0.0 102834
05:00−3вюв33445 0.0 102867
08:00−1вюв333626 0.0 1028275
11:00+3юв223175 0.0 1025588
14:00+6ююв113024 0.0 1022862
17:00+6ю1130100 0.0 1021857
20:00+2юв2253100 0.0 102536